This is the latest recevied weather packets stored in our database for station/object EA7OC-10. If no packets are shown the sender has not sent any weather packets the latest 10 day(s).
| Time | Temp. | Humidity | Pressure | Rain* | Wind** | Luminosity | Snow |
|---|---|---|---|---|---|---|---|
| 1788036765 | 27.78° C | 25% | 1017 hPa | - | - | - | - |
| 1788035865 | 28.33° C | 24% | 1017 hPa | - | - | - | - |
| 1788034965 | 28.33° C | 24% | 1016.8 hPa | - | - | - | - |
| 1788034065 | 28.89° C | 24% | 1016.8 hPa | - | - | - | - |
| 1788033165 | 29.44° C | 24% | 1016.6 hPa | - | - | - | - |
| 1788032265 | 30° C | 25% | 1016.5 hPa | - | - | - | - |
| 1788031364 | 31.11° C | 24% | 1016.3 hPa | - | - | - | - |
| 1788030464 | 31.67° C | 24% | 1016.2 hPa | - | - | - | - |
| 1788029564 | 33.33° C | 24% | 1016.1 hPa | - | - | - | - |
| 1788028664 | 35.56° C | 24% | 1016.1 hPa | - | - | - | - |
| 1788027764 | 38.33° C | 24% | 1016.2 hPa | - | - | - | - |
| 1788026864 | 40° C | 24% | 1016.2 hPa | - | - | - | - |
| 1788025964 | 41.11° C | 25% | 1016.2 hPa | - | - | - | - |
| 1788025064 | 42.22° C | 24% | 1016.2 hPa | - | - | - | - |
| 1788024164 | 44.44° C | 25% | 1016.4 hPa | - | - | - | - |
| 1788023263 | 44.44° C | 26% | 1016.4 hPa | - | - | - | - |
| 1788022363 | 43.89° C | 25% | 1016.4 hPa | - | - | - | - |
| 1788021463 | 43.89° C | 25% | 1016.4 hPa | - | - | - | - |
| 1788020563 | 44.44° C | 25% | 1016.6 hPa | - | - | - | - |
| 1788019663 | 45° C | 26% | 1016.7 hPa | - | - | - | - |
| 1788018763 | 44.44° C | 26% | 1016.9 hPa | - | - | - | - |
| 1788017863 | 44.44° C | 26% | 1017.1 hPa | - | - | - | - |
| 1788016963 | 43.33° C | 26% | 1017.1 hPa | - | - | - | - |
| 1788016063 | 43.33° C | 26% | 1017.3 hPa | - | - | - | - |
| 1788015162 | 42.22° C | 26% | 1017.5 hPa | - | - | - | - |
* Rain since midnight (hover to see other rain measurements)
** Current wind speed in m/s (hover to see current wind gust speed)